PDT,Max TemperatureF,Mean TemperatureF,Min TemperatureF,Max Dew PointF,MeanDew PointF,Min DewpointF,Max Humidity, Mean Humidity, Min Humidity, Max Sea Level PressureIn, Mean Sea Level PressureIn, Min Sea Level PressureIn, Max VisibilityMiles, Mean VisibilityMiles, Min VisibilityMiles, Max Wind SpeedMPH, Mean Wind SpeedMPH, Max Gust SpeedMPH,PrecipitationIn, CloudCover, Events, WindDirDegrees
2011-10-1,96,79,61,55,49,43,73,47,21,29.92,29.88,29.82,10,10,10,17,5,22,0.00,0,,259
2011-10-2,92,77,62,53,48,46,60,42,23,29.97,29.91,29.87,10,10,10,16,4,22,0.00,1,,276
2011-10-3,84,73,61,52,50,45,67,49,31,29.93,29.89,29.84,10,10,10,17,4,23,0.00,2,,274
2011-10-4,71,64,57,55,52,48,80,66,52,29.95,29.91,29.87,10,10,10,15,5,21,T,5,Rain,257
2011-10-5,61,58,55,57,55,48,93,83,72,29.94,29.84,29.75,10,6,2,23,2,28,0.46,7,Rain,250
2011-10-6,68,58,48,48,45,40,93,64,35,29.95,29.88,29.83,10,10,10,13,2,28,0.00,2,,253
2011-10-7,75,61,47,49,44,35,86,55,23,30.08,30.01,29.94,10,10,10,15,3,23,0.00,1,,275
2011-10-8,84,67,49,46,41,33,80,49,17,30.04,29.98,29.90,10,10,10,16,5,22,0.00,0,,4
2011-10-9,85,69,52,45,40,31,66,41,15,29.97,29.90,29.81,10,10,10,12,2,16,0.00,1,,314
2011-10-10,83,69,54,49,43,37,66,43,20,29.92,29.87,29.83,10,10,10,14,4,20,0.00,1,,328
2011-10-11,90,73,55,56,49,42,72,47,22,29.88,29.84,29.78,10,10,8,9,2,12,0.00,0,,265
2011-10-12,102,81,60,55,44,31,73,42,11,29.91,29.82,29.76,10,10,10,10,5,17,0.00,0,,68
2011-10-13,102,83,63,46,38,22,40,23,6,29.84,29.79,29.72,10,10,10,15,5,21,0.00,0,,3
2011-10-14,92,77,62,57,48,40,60,39,17,29.87,29.82,29.77,10,10,7,12,4,17,0.00,2,,330
2011-10-15,84,71,58,58,56,53,100,69,37,29.97,29.90,29.85,10,4,0,16,4,22,0.00,2,Fog,279
2011-10-16,87,72,57,57,54,47,87,57,26,30.00,29.96,29.91,10,7,3,12,2,15,0.00,0,,263
2011-10-17,90,73,56,56,51,44,86,55,23,30.03,29.98,29.92,10,10,8,13,3,18,0.00,0,,287
2011-10-18,86,72,57,57,55,52,80,58,35,30.01,29.95,29.88,10,8,6,13,4,18,0.00,0,,275
2011-10-19,81,68,55,57,55,54,100,70,39,29.95,29.89,29.82,10,4,0,9,2,13,0.00,3,Fog,275
2011-10-20,76,66,56,56,54,53,93,70,46,30.06,29.96,29.89,8,4,1,10,2,15,0.00,6,,241
2011-10-21,78,68,58,55,54,51,86,66,45,30.08,30.02,29.95,6,4,2,9,2,20,0.00,4,,252
2011-10-22,96,75,53,53,48,26,89,49,9,30.02,29.96,29.88,10,8,3,14,3,18,0.00,0,,34
2011-10-23,94,75,56,55,47,32,72,42,12,30.03,29.93,29.84,10,8,2,14,4,20,0.00,0,,301
2011-10-24,74,66,57,57,55,54,93,73,53,30.08,30.00,29.94,6,3,1,9,3,12,0.02,6,Rain,268
2011-10-25,65,61,57,56,55,52,93,78,63,30.10,30.05,29.96,10,5,2,10,2,14,0.05,8,Rain,283
2011-10-26,75,66,56,54,50,41,86,59,31,30.05,29.99,29.91,10,8,5,13,5,20,0.00,3,,278
2011-10-27,81,65,48,44,27,6,71,39,6,30.00,29.97,29.90,10,10,10,13,6,18,0.00,0,,69
2011-10-28,84,65,46,35,23,7,56,31,5,30.05,30.00,29.94,10,10,10,8,4,12,0.00,0,,63
2011-10-29,88,67,45,44,33,19,52,30,7,30.03,29.98,29.92,10,10,10,10,4,15,0.00,0,,54
2011-10-30,92,71,49,45,36,19,66,37,8,30.02,29.98,29.92,10,9,2,13,4,16,0.00,0,,344
2011-10-31,87,69,51,46,38,29,72,43,13,30.00,29.94,29.86,10,10,7,13,5,16,0.00,0,,37